GW5691 Weather Reports


time (UTC)temp
F
wind
direction
speed
knots
gust
knots
rain 1hr
in
rain 24hr
in
rain mn
in
humidity
%
barometer
mb
20260505164526 73 309 6.1 13.9 0.00 0.00 0.00 46 1015.3
20260505163025 73 211 3.5 13.0 0.00 0.00 0.00 49 1015.4
20260505161524 72 183 3.5 7.8 0.00 0.00 0.00 46 1015.4
20260505153029 70 247 3.5 9.6 0.00 0.00 0.00 51 1015.3
20260505151532 70 317 1.7 6.1 0.00 0.00 0.00 54 1015.3
20260505124506 60 103 0.0 1.7 0.00 0.00 0.00 75 1015.3
20260505123025 57 317 0.0 1.7 0.00 0.00 0.00 78 1015.1
20260505121522 56 37 0.0 1.7 0.00 0.00 0.00 79 1014.8
20260505120018 55 36 0.0 0.0 0.00 0.00 0.00 77 1014.9
20260505114517 52 36 0.0 1.7 0.00 0.00 0.00 84 1014.8
20260505113014 51 304 0.0 1.7 0.00 0.00 0.00 84 1014.5
20260505111511 50 302 0.0 1.7 0.00 0.00 0.00 85 1014.4
20260505101530 51 228 0.0 0.0 0.00 0.00 0.00 79 1014.1
20260505100022 54 213 0.0 0.0 0.00 0.00 0.00 71 1014.2
20260505094514 53 213 0.0 0.0 0.00 0.00 0.00 76 1014.0
20260505093022 55 193 0.0 0.0 0.00 0.00 0.00 72 1014.0
20260505091528 57 196 0.0 0.0 0.00 0.00 0.00 67 1014.0
20260505090026 57 196 0.0 1.7 0.00 0.00 0.00 66 1013.9
20260505084524 58 199 0.0 1.7 0.00 0.00 0.00 64 1013.8
20260505083025 60 144 0.9 3.5 0.00 0.00 0.00 62 1013.7
20260505081520 60 203 0.0 3.5 0.00 0.00 0.00 62 1013.6
20260505080016 60 325 0.0 1.7 0.00 0.00 0.00 62 1013.6
20260505074513 61 151 0.0 4.3 0.00 0.00 0.00 59 1013.4
20260505073027 62 215 1.7 6.1 0.00 0.00 0.00 58 1013.4
20260505071526 62 117 0.9 6.1 0.00 0.00 0.00 57 1013.7
20260505070026 62 242 2.6 6.1 0.00 0.00 0.00 57 1013.6
20260505064522 62 161 0.9 4.3 0.00 0.00 0.00 58 1013.7
20260505063022 62 193 0.9 3.5 0.00 0.00 0.00 58 1013.7
20260505061521 61 199 0.9 2.6 0.00 0.00 0.00 61 1013.7
20260505060015 62 251 0.9 3.5 0.00 0.00 0.00 59 1013.6
20260505054527 63 272 0.0 5.2 0.00 0.00 0.00 59 1013.6
20260505053007 63 284 0.9 5.2 0.00 0.00 0.00 59 1013.7
20260505051549 64 212 0.9 7.0 0.00 0.00 0.00 58 1013.5
20260505041516 59 246 0.0 0.9 0.00 0.00 0.00 70 1013.5
20260505040014 59 230 0.0 1.7 0.00 0.00 0.00 68 1013.4
20260505034513 60 181 0.0 1.7 0.00 0.00 0.00 65 1013.5
20260505033029 62 200 0.0 0.0 0.00 0.00 0.00 61 1013.5
20260505031523 62 261 0.0 1.7 0.00 0.00 0.00 62 1013.6
20260505030024 66 260 0.0 1.7 0.00 0.00 0.00 55 1013.4
20260505024520 67 194 0.0 4.3 0.00 0.00 0.00 53 1013.6
20260505023016 67 153 0.9 4.3 0.00 0.00 0.00 51 1013.6
20260505021514 68 190 3.5 7.8 0.00 0.00 0.00 49 1013.6
20260505020027 68 218 2.6 6.1 0.00 0.00 0.00 50 1013.4
20260505014525 68 186 0.0 5.2 0.00 0.00 0.00 51 1013.4
20260505013024 68 176 0.9 2.6 0.00 0.00 0.00 52 1013.3
20260505011523 68 264 0.9 4.3 0.00 0.00 0.00 53 1013.2
20260505010019 69 266 0.9 3.5 0.00 0.00 0.00 53 1013.2
20260505004518 70 240 0.0 1.7 0.00 0.00 0.00 51 1013.0
20260505003021 71 257 0.0 1.7 0.00 0.00 0.00 50 1012.9
20260505001525 71 261 0.9 2.6 0.00 0.00 0.00 49 1012.9
20260505000026 72 234 0.9 3.5 0.00 0.00 0.00 46 1012.9
20260504234523 72 259 1.7 4.3 0.00 0.00 0.00 44 1012.8
20260504233024 73 230 0.9 5.2 0.00 0.00 0.00 41 1012.6
20260504231523 74 274 1.7 10.4 0.00 0.00 0.00 40 1012.7
20260504230017 75 252 3.5 7.8 0.00 0.00 0.00 39 1012.5
20260504224512 76 163 2.6 7.8 0.00 0.00 0.00 41 1012.5
20260504223026 76 209 3.5 8.7 0.00 0.00 0.00 39 1012.5
20260504221528 76 233 2.6 7.8 0.00 0.00 0.00 41 1012.6
20260504220026 76 231 2.6 7.8 0.00 0.00 0.00 42 1012.7
20260504214524 76 303 1.7 6.1 0.00 0.00 0.00 40 1012.8
20260504213022 76 203 3.5 8.7 0.00 0.00 0.00 38 1012.8
20260504211516 76 274 2.6 7.8 0.00 0.00 0.00 40 1013.0
20260504210032 76 242 4.3 9.6 0.00 0.00 0.00 36 1013.2
20260504204527 76 256 3.5 8.7 0.00 0.00 0.00 40 1013.3
20260504203039 76 259 2.6 9.6 0.00 0.00 0.00 42 1013.4
20260504201525 76 244 3.5 11.3 0.00 0.00 0.00 44 1013.6
20260504200026 75 269 4.3 12.2 0.00 0.00 0.00 44 1013.7
20260504194524 76 291 5.2 9.6 0.00 0.00 0.00 45 1013.8
20260504193019 76 230 1.7 7.8 0.00 0.00 0.00 44 1014.0
20260504191523 76 253 1.7 6.1 0.00 0.00 0.00 46 1014.3
20260504190014 74 240 1.7 7.0 0.00 0.00 0.00 47 1014.5
20260504184510 74 271 2.6 7.0 0.00 0.00 0.00 49 1014.7
20260504183010 73 257 3.5 8.7 0.00 0.00 0.00 46 1014.9
20260504181505 73 173 2.6 7.8 0.00 0.00 0.00 46 1015.0
20260504180017 73 156 2.6 8.7 0.00 0.00 0.00 46 1015.2
20260504174519 73 169 2.6 8.7 0.00 0.00 0.00 46 1015.3
20260504173018 72 262 4.3 9.6 0.00 0.00 0.00 46 1015.4
20260504171514 71 265 2.6 8.7 0.00 0.00 0.00 48 1015.6